User: anonymous   Login
Location: Oshawa
(43.9000°N, 78.8670°W)
Time: 22:21:35
(UTC-04:00)
Language:

Cosmos 1805 Rocket - Orbit

View from above orbital plane
View from above orbital plane
View from above satellite
View from above satellite

Ground track
Ground track

The orbit data is extracted from the following two-line orbital elements,

1 17192U 86097B   16178.23624525  .00000087  00000-0  77119-5 0  9997
2 17192  82.5062 230.5709 0016650 189.5205 233.0742 14.83447477595907
Epoch (UTC): 26 June 2016 05:40:11
Eccentricity: 0.0016650
inclination: 82.5062°
perigee height: 607 km
apogee height: 630 km
right ascension of ascending node: 230.5709°
argument of perigee: 189.5205°
revolutions per day: 14.83447477
mean anomaly at epoch: 233.0742°
orbit number at epoch: 59590

The dashed part of the orbit path shows where the satellite is in the earth's shadow,  

DLR